TimeMST,TemperatureF,Dew PointF,Humidity,Sea Level PressureIn,VisibilityMPH,Wind Direction,Wind SpeedMPH,Gust SpeedMPH,PrecipitationIn,Events,Conditions,WindDirDegrees,DateUTC
12:15 AM,33.8,26.6,75,29.84,10.0,North,10.4,16.1,N/A,,Mostly Cloudy,350,2013-03-09 07:15:00
12:35 AM,33.8,24.8,70,29.84,10.0,North,9.2,-,N/A,,Partly Cloudy,10,2013-03-09 07:35:00
12:55 AM,32.0,24.8,75,29.85,10.0,North,9.2,-,N/A,,Partly Cloudy,360,2013-03-09 07:55:00
1:15 AM,30.2,24.8,80,29.85,10.0,North,6.9,-,N/A,,Partly Cloudy,10,2013-03-09 08:15:00
1:35 AM,30.2,24.8,80,29.86,10.0,NNW,4.6,-,N/A,,Partly Cloudy,330,2013-03-09 08:35:00
1:55 AM,30.2,24.8,80,29.86,10.0,NNE,4.6,-,N/A,,Clear,30,2013-03-09 08:55:00
2:15 AM,28.4,24.8,86,29.86,10.0,NE,3.5,-,N/A,,Clear,40,2013-03-09 09:15:00
2:35 AM,28.4,23.0,80,29.86,10.0,NNE,6.9,-,N/A,,Clear,30,2013-03-09 09:35:00
2:55 AM,28.4,24.8,86,29.86,10.0,Calm,Calm,-,N/A,,Mostly Cloudy,0,2013-03-09 09:55:00
3:15 AM,30.2,24.8,80,29.86,10.0,NNE,4.6,-,N/A,,Overcast,30,2013-03-09 10:15:00
3:35 AM,28.4,24.8,86,29.86,10.0,NNE,3.5,-,N/A,,Overcast,20,2013-03-09 10:35:00
3:55 AM,28.4,24.8,86,29.87,10.0,NNW,3.5,-,N/A,,Overcast,340,2013-03-09 10:55:00
4:15 AM,28.4,24.8,86,29.87,10.0,North,5.8,-,N/A,,Overcast,360,2013-03-09 11:15:00
4:35 AM,30.2,24.8,80,29.88,10.0,North,5.8,-,N/A,,Overcast,350,2013-03-09 11:35:00
4:55 AM,30.2,26.6,86,29.88,10.0,North,8.1,-,N/A,,Overcast,350,2013-03-09 11:55:00
5:15 AM,32.0,26.6,80,29.89,10.0,North,8.1,-,N/A,,Overcast,350,2013-03-09 12:15:00
5:35 AM,30.2,24.8,80,29.89,10.0,North,6.9,-,N/A,,Mostly Cloudy,350,2013-03-09 12:35:00
5:55 AM,30.2,24.8,80,29.89,10.0,North,9.2,-,N/A,,Mostly Cloudy,360,2013-03-09 12:55:00
6:15 AM,30.2,23.0,75,29.90,10.0,North,13.8,-,N/A,,Overcast,360,2013-03-09 13:15:00
6:35 AM,28.4,21.2,74,29.91,10.0,North,10.4,-,N/A,,Mostly Cloudy,360,2013-03-09 13:35:00
6:55 AM,28.4,21.2,74,29.93,10.0,North,10.4,-,N/A,,Mostly Cloudy,350,2013-03-09 13:55:00
7:15 AM,28.4,21.2,74,29.95,10.0,North,10.4,16.1,N/A,,Mostly Cloudy,360,2013-03-09 14:15:00
7:35 AM,28.4,19.4,69,29.95,10.0,North,8.1,-,N/A,,Partly Cloudy,350,2013-03-09 14:35:00
8:15 AM,30.2,19.4,64,29.97,10.0,North,9.2,20.7,N/A,,Clear,360,2013-03-09 15:15:00
8:35 AM,30.2,19.4,64,29.98,10.0,North,8.1,-,N/A,,Partly Cloudy,360,2013-03-09 15:35:00
8:55 AM,33.8,17.6,52,29.99,10.0,North,17.3,20.7,N/A,,Clear,350,2013-03-09 15:55:00
9:15 AM,33.8,19.4,56,29.99,10.0,North,18.4,27.6,N/A,,Clear,360,2013-03-09 16:15:00
9:35 AM,33.8,17.6,52,29.99,10.0,North,19.6,28.8,N/A,,Clear,350,2013-03-09 16:35:00
9:55 AM,35.6,15.8,44,30.00,10.0,North,24.2,28.8,N/A,,Clear,10,2013-03-09 16:55:00
10:15 AM,37.4,15.8,41,30.00,10.0,North,25.3,29.9,N/A,,Partly Cloudy,10,2013-03-09 17:15:00
10:35 AM,37.4,15.8,41,30.00,10.0,North,24.2,34.5,N/A,,Mostly Cloudy,360,2013-03-09 17:35:00
10:55 AM,35.6,15.8,44,30.01,10.0,North,24.2,31.1,N/A,,Overcast,10,2013-03-09 17:55:00
11:15 AM,37.4,15.8,41,30.01,10.0,North,21.9,28.8,N/A,,Overcast,360,2013-03-09 18:15:00
11:35 AM,35.6,14.0,41,30.02,10.0,North,17.3,29.9,N/A,,Overcast,10,2013-03-09 18:35:00
11:55 AM,37.4,14.0,38,30.03,10.0,North,19.6,28.8,N/A,,Mostly Cloudy,360,2013-03-09 18:55:00
12:15 PM,37.4,14.0,38,30.03,10.0,North,17.3,28.8,N/A,,Mostly Cloudy,360,2013-03-09 19:15:00
12:55 PM,39.2,15.8,39,30.03,10.0,North,20.7,27.6,N/A,,Mostly Cloudy,10,2013-03-09 19:55:00
1:15 PM,39.2,15.8,39,30.03,10.0,North,17.3,28.8,N/A,,Partly Cloudy,350,2013-03-09 20:15:00
1:35 PM,39.2,14.0,36,30.02,10.0,North,18.4,26.5,N/A,,Clear,10,2013-03-09 20:35:00
1:55 PM,41.0,14.0,33,30.02,10.0,North,18.4,23.0,N/A,,Clear,360,2013-03-09 20:55:00
2:15 PM,39.2,14.0,36,30.02,10.0,North,20.7,25.3,N/A,,Clear,10,2013-03-09 21:15:00
2:35 PM,39.2,14.0,36,30.03,10.0,North,18.4,24.2,N/A,,Partly Cloudy,10,2013-03-09 21:35:00
2:55 PM,41.0,12.2,31,30.03,10.0,North,20.7,27.6,N/A,,Clear,360,2013-03-09 21:55:00
3:15 PM,42.8,12.2,29,30.03,10.0,North,18.4,25.3,N/A,,Clear,10,2013-03-09 22:15:00
3:35 PM,41.0,12.2,31,30.04,10.0,North,23.0,27.6,N/A,,Clear,10,2013-03-09 22:35:00
3:55 PM,41.0,12.2,31,30.04,10.0,North,21.9,29.9,N/A,,Clear,10,2013-03-09 22:55:00
4:15 PM,41.0,12.2,31,30.05,10.0,North,20.7,27.6,N/A,,Clear,10,2013-03-09 23:15:00
4:35 PM,41.0,12.2,31,30.05,10.0,North,17.3,28.8,N/A,,Clear,10,2013-03-09 23:35:00
5:15 PM,39.2,12.2,33,30.07,10.0,North,19.6,28.8,N/A,,Clear,360,2013-03-10 00:15:00
5:35 PM,39.2,12.2,33,30.08,10.0,North,17.3,-,N/A,,Clear,360,2013-03-10 00:35:00
5:55 PM,37.4,12.2,36,30.09,10.0,North,17.3,25.3,N/A,,Clear,360,2013-03-10 00:55:00
6:15 PM,37.4,12.2,36,30.10,10.0,North,13.8,21.9,N/A,,Clear,360,2013-03-10 01:15:00
6:35 PM,35.6,12.2,38,30.11,10.0,North,13.8,19.6,N/A,,Clear,360,2013-03-10 01:35:00
6:55 PM,35.6,12.2,38,30.12,10.0,North,13.8,19.6,N/A,,Clear,10,2013-03-10 01:55:00
7:15 PM,35.6,12.2,38,30.13,10.0,North,12.7,19.6,N/A,,Clear,360,2013-03-10 02:15:00
7:35 PM,33.8,12.2,41,30.14,10.0,West,6.9,-,N/A,,Clear,280,2013-03-10 02:35:00
7:55 PM,33.8,14.0,44,30.15,10.0,West,11.5,-,N/A,,Clear,280,2013-03-10 02:55:00
8:15 PM,33.8,12.2,41,30.16,10.0,NW,9.2,-,N/A,,Clear,310,2013-03-10 03:15:00
8:35 PM,32.0,12.2,44,30.17,10.0,WNW,8.1,-,N/A,,Clear,300,2013-03-10 03:35:00
8:55 PM,32.0,12.2,44,30.17,10.0,NNW,9.2,-,N/A,,Clear,340,2013-03-10 03:55:00
9:15 PM,30.2,12.2,47,30.18,10.0,NNW,9.2,-,N/A,,Clear,330,2013-03-10 04:15:00
9:35 PM,30.2,12.2,47,30.18,10.0,North,8.1,-,N/A,,Clear,360,2013-03-10 04:35:00
9:55 PM,30.2,12.2,47,30.18,10.0,NNW,3.5,-,N/A,,Clear,330,2013-03-10 04:55:00
10:15 PM,28.4,14.0,55,30.18,10.0,NNW,4.6,-,N/A,,Clear,340,2013-03-10 05:15:00
10:35 PM,28.4,14.0,55,30.17,10.0,Calm,Calm,-,N/A,,Clear,0,2013-03-10 05:35:00
10:55 PM,24.8,12.2,59,30.17,10.0,South,3.5,-,N/A,,Clear,180,2013-03-10 05:55:00
11:15 PM,24.8,12.2,59,30.18,10.0,Calm,Calm,-,N/A,,Clear,0,2013-03-10 06:15:00
11:35 PM,24.8,14.0,64,30.17,10.0,SW,3.5,-,N/A,,Clear,220,2013-03-10 06:35:00
11:55 PM,23.0,12.2,63,30.17,10.0,South,4.6,-,N/A,,Clear,190,2013-03-10 06:55:00